Regional Weather Roundup
Issued by NWS Albany, NY

Home | Current Version | Previous Version | Text Only | Print | Product List | Glossary On
Versions: 1 2 3 4 5 6 7 8 9 10 11 12 13 14 15 16 17 18 19 20 21 22 23 24 25 26 27 28 29 30 31 32 33 34 35 36 37 38 39 40 41 42 43 44 45 46 47 48 49 50
000
ASUS41 KALY 051110
RWRALY

NEW YORK STATE HOURLY WEATHER ROUNDUP
NATIONAL WEATHER SERVICE ALBANY NY
700 AM EDT WED AUG 05 2015

NOTE: "FAIR" INDICATES FEW OR NO CLOUDS BELOW 12,000 FEET WITH NO
SIGNIFICANT WEATHER AND/OR NO OBSTRUCTIONS TO VISIBILITY.

NYZ032-033-038>043-046>054-057>066-NYZ062>081-051200-
EAST


CITY           SKY/WX    TMP DP  RH WIND       PRES   REMARKS
ALBANY         PTSUNNY   63  58  83 CALM      29.91S
GLENS FALLS    CLOUDY    67  57  70 SW3       29.89R
POUGHKEEPSIE   SUNNY     62  58  86 N5        29.91R
NEWBURGH       SUNNY     63  59  88 CALM      29.93R
MONTGOMERY     SUNNY     59  57  93 S3        29.92R
WHITE PLAINS   MOSUNNY   66  62  87 NW3       29.91R
ISLIP          PTSUNNY   68  63  84 CALM      29.88R
NEW YORK CITY  PTSUNNY   76  61  59 CALM      29.90R
CENTRAL PARK   MOSUNNY   73  59  61 CALM      29.94R
$$

NYZ005>009-017-018-044>046-055-056-051200-
CENTRAL


CITY           SKY/WX    TMP DP  RH WIND       PRES   REMARKS
FULTON         CLOUDY    63  61  93 SW5       29.92S
SYRACUSE       MOCLDY    64  61  88 W5        29.92R
ROME           CLOUDY    62  60  93 CALM      29.93S
ELMIRA         MOCLDY    58  57  97 W3        29.96R
BINGHAMTON     MOCLDY    58  56  93 W6        29.97R
MONTICELLO     SUNNY     55  55 100 CALM      29.97S
$$

NYZ026>034-041>043-051200-
NORTH


CITY           SKY/WX    TMP DP  RH WIND       PRES   REMARKS
WATERTOWN      CLEAR     61  58  90 CALM      29.90R
FORT DRUM      NOT AVBL
MASSENA        SUNNY     61  59  93 SW7       29.86S
SARANAC LAKE   MOSUNNY   58  56  93 SW6       29.88S
PLATTSBURGH    SUNNY     63  58  83 CALM      29.85R
$$

NYZ001>004-010>016-019>021-051200-
WEST


CITY           SKY/WX    TMP DP  RH WIND       PRES   REMARKS
NIAGARA FALLS  MOCLDY    61  54  77 W7        29.97R
BUFFALO        MOCLDY    63  54  72 SW5       29.97R
DUNKIRK        PTCLDY    61  60  97 CALM      29.99R
JAMESTOWN      MOCLDY    59  55  88 CALM      30.01R
WELLSVILLE     CLOUDY    59  55  87 W3        30.03R
ROCHESTER      MOCLDY    61  59  93 SW8       29.96R
PENN YAN       CLEAR     62  58  86 S3        29.97R
$$

             KEY
       WCI = WIND CHILL INDEX
       VSB = VISIBILITY
       HX  = HEAT INDEX
$$


USA.gov is the U.S. government's official web portal to all federal, state and local government web resources and services.